Location: Chapel Hill
(35.9134°N, 79.0560°W)
Time: 14:02:33
(UTC-05:00)

ISS - Visible Passes

Search period start: 07 December 2021 00:00
Search period end: 17 December 2021 00:00
Orbit: 417 x 422 km, 51.6° (Epoch: 07 December)

Date Brightness Start Highest point End Pass type
(mag) Time Alt. Az. Time Alt. Az. Time Alt. Az.
07 Dec -2.7 17:29:08 10° NNW 17:32:07 28° NE 17:35:05 10° E visible
07 Dec -1.8 19:05:59 10° WNW 19:08:52 26° SW 19:09:19 25° SW visible
08 Dec -2.8 18:18:17 10° WNW 18:21:35 49° SW 18:24:50 10° SSE visible
09 Dec -3.8 17:30:49 10° NW 17:34:13 85° NE 17:37:35 10° SE visible
10 Dec -0.5 18:21:21 10° W 18:23:18 15° SW 18:25:14 10° SSW visible
11 Dec -1.1 17:33:09 10° WNW 17:36:02 26° SW 17:38:55 10° S visible
